Showing default

IRIDE-MS2-HEO-1, 62697

Orbit data source: Space-Track

IRIDE-MS2-HEO-1, 62697 is an Italian payload satellite in SSO that was launched on Tue, 14 Jan 2025 UTC via an FALCON 9 launch vehicle from the Air Force Western Test Range (AFWTR). Payload-class satellites include a variety of spacecraft equipped with specific instruments for various scientific and technological missions. These include communications satellites like Starlink; space stations such as the ISS; scientific satellites like the Hubble; Earth observation satellites from companies like Planet Labs, Umbra, and HawkEye 360; GPS; miniature CubeSats for education and research; and military/defense satellites.

Loading next visibility...
Identifier
62697, 2025-009CS
Orbit
SSO
Last TLE update
14 hours ago
Origin
Manufacturer
ArgoTec
Mission
Operational Civil Imaging
Bus & Motor
HAWK, Unknown motor
Mass
65 kg wet, 65 kg dry
Launch date (UTC)
2025-01-14 (6 months ago)
Launch vehicle
FALCON 9
Launch site
Air Force Western Test Range (AFWTR)
Object type
Payload
Rocket body
Debris
Shape & HBR
Box + 2 Pan, 2 m
Radar Cross Section
0.683 m², Medium (>0.1 m² and < 1m²)

Expand to show TLE details & history

TLE from 14 hours ago
0 IRIDE-MS2-HEO-1
1 62697U 25009CS  25183.55880858  .00001685  00000-0  16958-3 0  9994
2 62697  97.7361 263.1738 0004074  90.7716 269.3970 14.92494116 25150
Epoch: 2025-07-02T13:24Z
TLE epoch observation values (Epoch: 2025-07-02T13:24:41.061Z)
Latitude
-0.00002°
Longitude
141.16454°
Altitude
593.236 km
Speed
7.563 km/s
True Right ascension
17h 32m 41s
True Declination
0° 00' 00"
Sunlit
Object was in full shadow at epoch
Visualization orbit readout
Latitude
-76.01927°
Longitude
-71.12718°
Altitude
620.409 km
Speed
7.546 km/s
Apparent Right ascension
03h 14m 31s
Apparent Declination
-58° 41' 36"
Sunlit
Object is in daylight
Visualization observer readout
Local Sidereal Time
15:11:24
Azimuth
181.258° SSW
Elevation
-71.216°
Doppler factor
1
Orbital elements
Apogee altitude
590.016 km
Perigee altitude
584.341 km
Semi-major axis
6,965.316 km
Eccentricity
0.00041
Inclination
97.7361°
RAAN
263.1738°
Arg. of periapsis
90.7716°
True anomaly
Unknown
Mean anomaly
269.397°
Eccentric anomaly
Unknown
Mean motion
3.73364 °/min
Orbital period
96.42 mins
BSTAR
0.00016958
Loading maneuver chart data...
Loading SW <> Apogee altitude chart data...
Loading historical data...
Loading historical data...
Loading historical data...
Loading historical data...
Loading historical data...
Loading historical data...
Loading historical data...

IRIDE-MS2-HEO-1 Visibility forecast

Observer location: undefined°, undefined°

Span
Click to sort rows by Start time (UTC) header in descending order
Start Az.
Max El. time (UTC)
Max El. Az.
Max El.
End time (UTC)
End Az.
6 mins2025-07-03 05:38:13.052Z188.034° SSW2025-07-03 05:41:13.052Z290.028° WNW38.156°2025-07-03 05:44:13.052Z336.802° NNW
4 mins2025-07-03 17:22:13.052Z64.963° ENE2025-07-03 17:23:13.052Z84.069° E20.094°2025-07-03 17:26:13.052Z138.867° SSE
5 mins2025-07-03 18:57:13.052Z332.958° NNW2025-07-03 18:59:13.052Z289.752° WNW25.115°2025-07-03 19:02:13.052Z235.347° WSW
|